STARLINK-35991

Last updated on Mon Dec 15 2025 00:02:12 GMT+0000 (Coordinated Universal Time)

1 66861U 25281P 25348.25003472 -.01256656 00000+0 -52137-2 0 9992 2 66861 43.0007 112.9519 0001670 264.5157 291.1129 15.87320617 1641
UTC large
Height (km)
Speed (km/s)
/
Latitude / Longitude
Inclination (degrees)
Orbital Period (minutes)
Azimuth
Elevation
Range (km)
Doppler Factor

Next 0 passes for location: London (51.5072 / 0.1276)

Sorry there are no passes over London.